| time (UTC) | temp F | wind direction | speed knots | gust knots | rain 1hr in | rain 24hr in | rain mn in | humidity % | barometer mb |
| 20260507062653 | 54 | 0 | 1.7 | 7.0 | 0.00 | 0.00 | 0.00 | 83 | 1025.8 |
| 20260507062150 | 54 | 270 | 0.0 | 3.5 | 0.00 | 0.00 | 0.00 | 82 | 1025.8 |
| 20260507061648 | 54 | 240 | 0.0 | 2.6 | 0.00 | 0.00 | 0.00 | 82 | 1026.1 |
| 20260507061146 | 54 | 7 | 0.9 | 3.5 | 0.00 | 0.00 | 0.00 | 82 | 1026.2 |
| 20260507060644 | 54 | 262 | 0.9 | 3.5 | 0.00 | 0.00 | 0.00 | 82 | 1026.5 |
| 20260507060140 | 54 | 300 | 0.0 | 3.5 | 0.00 | 0.00 | 0.00 | 82 | 1026.6 |
| 20260507055635 | 54 | 307 | 2.6 | 6.1 | 0.00 | 0.00 | 0.00 | 82 | 1026.6 |
| 20260507055131 | 54 | 249 | 0.9 | 3.5 | 0.00 | 0.00 | 0.00 | 82 | 1026.5 |
| 20260507054627 | 54 | 270 | 1.7 | 4.3 | 0.00 | 0.00 | 0.00 | 82 | 1026.6 |
| 20260507054125 | 54 | 255 | 0.9 | 7.8 | 0.00 | 0.00 | 0.00 | 82 | 1026.5 |
| 20260507053623 | 54 | 255 | 0.9 | 4.3 | 0.00 | 0.00 | 0.00 | 82 | 1026.6 |
| 20260507053121 | 54 | 267 | 2.6 | 8.7 | 0.00 | 0.00 | 0.00 | 82 | 1026.2 |
| 20260507052619 | 54 | 309 | 2.6 | 5.2 | 0.00 | 0.00 | 0.00 | 83 | 1026.3 |
| 20260507052115 | 54 | 270 | 0.9 | 4.3 | 0.00 | 0.00 | 0.00 | 83 | 1026.7 |
| 20260507051613 | 54 | 5 | 2.6 | 2.6 | 0.00 | 0.00 | 0.00 | 83 | 1026.5 |
| 20260507051109 | 54 | 90 | 0.9 | 4.3 | 0.00 | 0.00 | 0.00 | 82 | 1026.7 |
| 20260507050606 | 54 | 221 | 0.0 | 2.6 | 0.00 | 0.00 | 0.00 | 82 | 1026.6 |
| 20260507045559 | 55 | 30 | 0.0 | 2.6 | 0.00 | 0.00 | 0.00 | 82 | 1026.8 |
| 20260507045056 | 55 | 352 | 0.0 | 7.8 | 0.00 | 0.00 | 0.00 | 81 | 1026.6 |
| 20260507044553 | 55 | 244 | 2.6 | 2.6 | 0.00 | 0.00 | 0.00 | 81 | 1026.8 |
| 20260507044050 | 55 | 7 | 1.7 | 4.3 | 0.00 | 0.00 | 0.00 | 81 | 1026.7 |
| 20260507043545 | 55 | 313 | 4.3 | 10.4 | 0.00 | 0.00 | 0.00 | 81 | 1026.8 |
| 20260507043043 | 55 | 23 | 0.0 | 3.5 | 0.00 | 0.00 | 0.00 | 81 | 1026.5 |
| 20260507042539 | 55 | 352 | 1.7 | 7.8 | 0.00 | 0.00 | 0.00 | 80 | 1026.6 |
| 20260507042034 | 55 | 310 | 2.6 | 13.0 | 0.00 | 0.00 | 0.00 | 80 | 1026.3 |
| 20260507041532 | 55 | 66 | 0.0 | 2.6 | 0.00 | 0.00 | 0.00 | 80 | 1026.3 |
| 20260507041029 | 56 | 317 | 3.5 | 9.6 | 0.00 | 0.00 | 0.00 | 79 | 1026.7 |
| 20260507040525 | 56 | 0 | 1.7 | 5.2 | 0.00 | 0.00 | 0.00 | 80 | 1026.3 |
| 20260507040021 | 56 | 23 | 2.6 | 5.2 | 0.00 | 0.00 | 0.00 | 80 | 1026.3 |
| 20260507035517 | 56 | 23 | 0.9 | 3.5 | 0.00 | 0.00 | 0.00 | 80 | 1026.5 |
| 20260507035014 | 56 | 55 | 2.6 | 4.3 | 0.00 | 0.00 | 0.00 | 80 | 1026.3 |
| 20260507034511 | 56 | 4 | 1.7 | 4.3 | 0.00 | 0.00 | 0.00 | 79 | 1026.0 |
| 20260507034009 | 56 | 272 | 7.0 | 7.0 | 0.00 | 0.00 | 0.00 | 79 | 1026.2 |
| 20260507033507 | 56 | 46 | 4.3 | 8.7 | 0.00 | 0.00 | 0.00 | 79 | 1026.2 |
| 20260507033004 | 57 | 270 | 0.0 | 7.8 | 0.00 | 0.00 | 0.00 | 79 | 1025.8 |
| 20260507032500 | 57 | 270 | 0.0 | 9.6 | 0.00 | 0.00 | 0.00 | 79 | 1025.8 |
| 20260507031956 | 57 | 38 | 5.2 | 10.4 | 0.00 | 0.00 | 0.00 | 79 | 1025.7 |
| 20260507031453 | 57 | 348 | 5.2 | 7.8 | 0.00 | 0.00 | 0.00 | 78 | 1025.6 |
| 20260507030950 | 57 | 297 | 4.3 | 12.2 | 0.00 | 0.00 | 0.00 | 78 | 1025.5 |
| 20260507030447 | 58 | 0 | 2.6 | 7.8 | 0.00 | 0.00 | 0.00 | 78 | 1025.5 |
| 20260507025944 | 58 | 352 | 5.2 | 9.6 | 0.00 | 0.00 | 0.00 | 78 | 1025.7 |
| 20260507025441 | 58 | 318 | 5.2 | 6.1 | 0.00 | 0.00 | 0.00 | 78 | 1025.5 |
| 20260507024939 | 58 | 285 | 0.0 | 7.8 | 0.00 | 0.00 | 0.00 | 78 | 1025.3 |
| 20260507024436 | 59 | 302 | 5.2 | 6.1 | 0.00 | 0.00 | 0.00 | 78 | 1025.4 |
| 20260507023932 | 59 | 311 | 3.5 | 6.1 | 0.00 | 0.00 | 0.00 | 78 | 1025.7 |
| 20260507023429 | 59 | 324 | 1.7 | 7.8 | 0.00 | 0.00 | 0.00 | 78 | 1025.7 |
| 20260507022926 | 59 | 27 | 2.6 | 5.2 | 0.00 | 0.00 | 0.00 | 78 | 1025.5 |
| 20260507022423 | 59 | 31 | 3.5 | 11.3 | 0.00 | 0.00 | 0.00 | 78 | 1025.8 |
| 20260507021919 | 59 | 38 | 7.0 | 7.8 | 0.00 | 0.00 | 0.00 | 78 | 1025.6 |
| 20260507021414 | 59 | 341 | 3.5 | 9.6 | 0.00 | 0.00 | 0.00 | 78 | 1025.8 |
| 20260507020912 | 59 | 357 | 4.3 | 6.1 | 0.00 | 0.00 | 0.00 | 77 | 1025.9 |
| 20260507020408 | 60 | 352 | 1.7 | 7.0 | 0.00 | 0.00 | 0.00 | 77 | 1025.6 |
| 20260507015905 | 60 | 9 | 2.6 | 4.3 | 0.00 | 0.00 | 0.00 | 77 | 1025.7 |
| 20260507015404 | 60 | 0 | 6.1 | 8.7 | 0.00 | 0.00 | 0.00 | 76 | 1025.8 |
| 20260507014900 | 61 | 2 | 5.2 | 7.8 | 0.00 | 0.00 | 0.00 | 76 | 1025.9 |
| 20260507014356 | 61 | 267 | 2.6 | 8.7 | 0.00 | 0.00 | 0.00 | 75 | 1026.0 |
| 20260507013853 | 61 | 336 | 2.6 | 7.0 | 0.00 | 0.00 | 0.00 | 75 | 1025.9 |
| 20260507013350 | 61 | 311 | 6.1 | 8.7 | 0.00 | 0.00 | 0.00 | 75 | 1026.0 |
| 20260507012848 | 62 | 225 | 1.7 | 6.1 | 0.00 | 0.00 | 0.00 | 75 | 1025.9 |
| 20260507012343 | 62 | 0 | 2.6 | 13.9 | 0.00 | 0.00 | 0.00 | 75 | 1026.1 |
| 20260507011840 | 62 | 287 | 2.6 | 7.8 | 0.00 | 0.00 | 0.00 | 74 | 1025.8 |
| 20260507011338 | 63 | 331 | 6.1 | 10.4 | 0.00 | 0.00 | 0.00 | 73 | 1025.9 |
| 20260507010832 | 63 | 7 | 1.7 | 3.5 | 0.00 | 0.00 | 0.00 | 72 | 1026.0 |
| 20260507010328 | 64 | 214 | 2.6 | 5.2 | 0.00 | 0.00 | 0.00 | 72 | 1026.0 |
| 20260507005825 | 64 | 216 | 1.7 | 4.3 | 0.00 | 0.00 | 0.00 | 72 | 1025.9 |
| 20260507005322 | 63 | 41 | 1.7 | 8.7 | 0.00 | 0.00 | 0.00 | 73 | 1026.0 |
| 20260507004818 | 63 | 26 | 0.9 | 9.6 | 0.00 | 0.00 | 0.00 | 72 | 1026.0 |
| 20260507004316 | 63 | 284 | 2.6 | 7.0 | 0.00 | 0.00 | 0.00 | 73 | 1025.8 |
| 20260507003813 | 64 | 161 | 1.7 | 2.6 | 0.00 | 0.00 | 0.00 | 71 | 1025.8 |
| 20260507003307 | 64 | 342 | 0.9 | 6.1 | 0.00 | 0.00 | 0.00 | 72 | 1025.9 |
| 20260507002758 | 65 | 34 | 4.3 | 7.0 | 0.00 | 0.00 | 0.00 | 72 | 1025.8 |
| 20260507002254 | 65 | 45 | 2.6 | 4.3 | 0.00 | 0.00 | 0.00 | 71 | 1026.0 |
| 20260507001751 | 65 | 294 | 2.6 | 4.3 | 0.00 | 0.00 | 0.00 | 69 | 1025.7 |
| 20260507001249 | 65 | 139 | 4.3 | 5.2 | 0.00 | 0.00 | 0.00 | 70 | 1025.7 |
| 20260507000744 | 64 | 355 | 0.9 | 8.7 | 0.00 | 0.00 | 0.00 | 71 | 1025.7 |
| 20260507000240 | 65 | 198 | 2.6 | 6.1 | 0.00 | 0.00 | 0.00 | 69 | 1025.7 |
| 20260506235737 | 66 | 214 | 2.6 | 4.3 | 0.00 | 0.00 | 0.00 | 68 | 1025.5 |
| 20260506235232 | 66 | 112 | 0.0 | 5.2 | 0.00 | 0.00 | 0.00 | 69 | 1025.7 |
| 20260506234730 | 66 | 19 | 0.0 | 5.2 | 0.00 | 0.00 | 0.00 | 70 | 1025.6 |
| 20260506234227 | 65 | 255 | 4.3 | 5.2 | 0.00 | 0.00 | 0.00 | 71 | 1025.8 |
| 20260506233725 | 66 | 343 | 2.6 | 4.3 | 0.00 | 0.00 | 0.00 | 70 | 1025.8 |
| 20260506233221 | 66 | 57 | 2.6 | 7.8 | 0.00 | 0.00 | 0.00 | 70 | 1025.6 |
| 20260506232718 | 65 | 350 | 1.7 | 4.3 | 0.00 | 0.00 | 0.00 | 70 | 1025.6 |
| 20260506232212 | 65 | 319 | 3.5 | 8.7 | 0.00 | 0.00 | 0.00 | 71 | 1025.5 |
| 20260506231710 | 65 | 39 | 3.5 | 5.2 | 0.00 | 0.00 | 0.00 | 72 | 1025.8 |
| 20260506231209 | 65 | 241 | 4.3 | 5.2 | 0.00 | 0.00 | 0.00 | 71 | 1026.0 |
| 20260506230704 | 66 | 49 | 1.7 | 5.2 | 0.00 | 0.00 | 0.00 | 70 | 1025.8 |
| 20260506230202 | 67 | 32 | 0.0 | 5.2 | 0.00 | 0.00 | 0.00 | 69 | 1025.8 |
| 20260506225658 | 65 | 235 | 7.0 | 8.7 | 0.00 | 0.00 | 0.00 | 70 | 1025.7 |
| 20260506225155 | 65 | 278 | 0.0 | 4.3 | 0.00 | 0.00 | 0.00 | 72 | 1025.9 |
| 20260506224651 | 66 | 8 | 0.0 | 5.2 | 0.00 | 0.00 | 0.00 | 72 | 1025.9 |
| 20260506224148 | 64 | 357 | 2.6 | 4.3 | 0.00 | 0.00 | 0.00 | 74 | 1025.9 |
| 20260506223645 | 66 | 348 | 1.7 | 4.3 | 0.00 | 0.00 | 0.00 | 72 | 1026.1 |
| 20260506223140 | 65 | 135 | 0.0 | 2.6 | 0.00 | 0.00 | 0.00 | 74 | 1025.9 |
| 20260506222638 | 65 | 208 | 2.6 | 2.6 | 0.00 | 0.00 | 0.00 | 73 | 1026.3 |
| 20260506222134 | 65 | 293 | 0.0 | 3.5 | 0.00 | 0.00 | 0.00 | 74 | 1026.2 |
| 20260506221632 | 64 | 240 | 0.0 | 2.6 | 0.00 | 0.00 | 0.00 | 74 | 1026.2 |
| 20260506221130 | 64 | 105 | 0.9 | 2.6 | 0.00 | 0.00 | 0.00 | 75 | 1026.2 |
| 20260506220626 | 63 | 66 | 2.6 | 5.2 | 0.00 | 0.00 | 0.00 | 76 | 1026.3 |
| 20260506220121 | 65 | 297 | 0.0 | 2.6 | 0.00 | 0.00 | 0.00 | 74 | 1026.5 |
| 20260506215618 | 64 | 90 | 1.7 | 3.5 | 0.00 | 0.00 | 0.00 | 75 | 1025.9 |
| 20260506215113 | 63 | 326 | 2.6 | 4.3 | 0.00 | 0.00 | 0.00 | 76 | 1025.9 |
| 20260506214611 | 64 | 252 | 2.6 | 2.6 | 0.00 | 0.00 | 0.00 | 76 | 1026.1 |
| 20260506214108 | 65 | 90 | 0.9 | 2.6 | 0.00 | 0.00 | 0.00 | 75 | 1026.1 |
| 20260506213606 | 66 | 276 | 0.9 | 2.6 | 0.00 | 0.00 | 0.00 | 73 | 1026.1 |
| 20260506213103 | 66 | 26 | 1.7 | 3.5 | 0.00 | 0.00 | 0.00 | 73 | 1026.0 |
| 20260506212600 | 64 | 106 | 1.7 | 3.5 | 0.00 | 0.00 | 0.00 | 75 | 1026.2 |
| 20260506212055 | 63 | 118 | 2.6 | 4.3 | 0.00 | 0.00 | 0.00 | 76 | 1026.0 |
| 20260506211551 | 64 | 230 | 2.6 | 2.6 | 0.00 | 0.00 | 0.00 | 76 | 1026.1 |
| 20260506211048 | 64 | 154 | 0.0 | 2.6 | 0.00 | 0.00 | 0.00 | 77 | 1026.2 |
| 20260506210544 | 62 | 266 | 1.7 | 5.2 | 0.00 | 0.00 | 0.00 | 78 | 1026.2 |
| 20260506210041 | 62 | 221 | 3.5 | 4.3 | 0.00 | 0.00 | 0.00 | 79 | 1026.5 |
| 20260506205538 | 64 | 303 | 4.3 | 5.2 | 0.00 | 0.00 | 0.00 | 75 | 1026.2 |
| 20260506205033 | 63 | 54 | 3.5 | 3.5 | 0.00 | 0.00 | 0.00 | 77 | 1026.1 |
| 20260506204532 | 62 | 324 | 2.6 | 5.2 | 0.00 | 0.00 | 0.00 | 79 | 1026.3 |
| 20260506204028 | 63 | 323 | 0.0 | 3.5 | 0.00 | 0.00 | 0.00 | 77 | 1026.7 |
| 20260506203527 | 63 | 56 | 0.0 | 2.6 | 0.00 | 0.00 | 0.00 | 79 | 1026.6 |
| 20260506203023 | 63 | 278 | 0.0 | 5.2 | 0.00 | 0.00 | 0.00 | 79 | 1026.3 |
| 20260506202520 | 62 | 327 | 1.7 | 2.6 | 0.00 | 0.00 | 0.00 | 79 | 1026.3 |
| 20260506202016 | 62 | 294 | 1.7 | 2.6 | 0.00 | 0.00 | 0.00 | 79 | 1026.7 |
| 20260506201514 | 62 | 150 | 3.5 | 4.3 | 0.00 | 0.00 | 0.00 | 79 | 1026.5 |
| 20260506201010 | 61 | 127 | 2.6 | 4.3 | 0.00 | 0.00 | 0.00 | 81 | 1026.5 |
| 20260506200507 | 62 | 132 | 1.7 | 4.3 | 0.00 | 0.00 | 0.00 | 80 | 1026.5 |
| 20260506200004 | 62 | 28 | 1.7 | 4.3 | 0.00 | 0.00 | 0.00 | 81 | 1026.9 |
| 20260506195501 | 62 | 82 | 2.6 | 3.5 | 0.00 | 0.00 | 0.00 | 80 | 1026.6 |
| 20260506194956 | 61 | 161 | 1.7 | 3.5 | 0.00 | 0.00 | 0.00 | 81 | 1026.6 |
| 20260506194454 | 60 | 79 | 3.5 | 3.5 | 0.00 | 0.00 | 0.00 | 83 | 1027.0 |
| 20260506193950 | 60 | 77 | 0.0 | 1.7 | 0.00 | 0.00 | 0.00 | 84 | 1027.1 |
| 20260506193448 | 59 | 15 | 0.0 | 2.6 | 0.00 | 0.00 | 0.00 | 85 | 1026.9 |
| 20260506192944 | 59 | 319 | 1.7 | 5.2 | 0.00 | 0.00 | 0.00 | 85 | 1027.3 |
| 20260506192442 | 60 | 0 | 0.0 | 2.6 | 0.00 | 0.00 | 0.00 | 83 | 1027.1 |
| 20260506191938 | 60 | 30 | 2.6 | 4.3 | 0.00 | 0.00 | 0.00 | 84 | 1027.0 |
| 20260506191435 | 59 | 294 | 0.0 | 5.2 | 0.00 | 0.00 | 0.00 | 84 | 1027.3 |
| 20260506190931 | 60 | 180 | 0.0 | 2.6 | 0.00 | 0.00 | 0.00 | 84 | 1027.1 |
| 20260506190428 | 60 | 237 | 1.7 | 3.5 | 0.00 | 0.00 | 0.00 | 84 | 1027.3 |
| 20260506185925 | 60 | 175 | 0.9 | 2.6 | 0.00 | 0.00 | 0.00 | 82 | 1027.4 |
| 20260506185422 | 61 | 106 | 0.9 | 2.6 | 0.00 | 0.00 | 0.00 | 81 | 1027.4 |
| 20260506184919 | 60 | 90 | 0.9 | 2.6 | 0.00 | 0.00 | 0.00 | 83 | 1027.3 |
| 20260506184416 | 60 | 90 | 0.9 | 1.7 | 0.00 | 0.00 | 0.00 | 83 | 1027.4 |
| 20260506183914 | 60 | 239 | 0.0 | 2.6 | 0.00 | 0.00 | 0.00 | 83 | 1027.2 |
| 20260506183409 | 60 | 151 | 0.9 | 1.7 | 0.00 | 0.00 | 0.00 | 82 | 1027.2 |
| 20260506182906 | 60 | 0 | 0.0 | 0.9 | 0.00 | 0.00 | 0.00 | 81 | 1026.8 |
| 20260506182403 | 60 | 66 | 0.0 | 1.7 | 0.00 | 0.00 | 0.00 | 82 | 1026.6 |
| 20260506181900 | 59 | 175 | 0.0 | 1.7 | 0.00 | 0.00 | 0.00 | 83 | 1026.5 |
| 20260506181358 | 60 | 265 | 0.0 | 1.7 | 0.00 | 0.00 | 0.00 | 83 | 1026.2 |
| 20260506180855 | 59 | 1 | 3.5 | 5.2 | 0.00 | 0.00 | 0.00 | 83 | 1026.2 |
| 20260506180351 | 59 | 45 | 3.5 | 4.3 | 0.00 | 0.00 | 0.00 | 82 | 1026.2 |
| 20260506175848 | 59 | 106 | 1.7 | 2.6 | 0.00 | 0.00 | 0.00 | 83 | 1026.3 |
| 20260506175344 | 59 | 353 | 0.9 | 4.3 | 0.00 | 0.00 | 0.00 | 84 | 1026.1 |
| 20260506174842 | 58 | 246 | 0.0 | 3.5 | 0.00 | 0.00 | 0.00 | 85 | 1026.2 |
| 20260506174339 | 58 | 39 | 2.6 | 3.5 | 0.00 | 0.00 | 0.00 | 85 | 1026.2 |
| 20260506173837 | 58 | 60 | 4.3 | 4.3 | 0.00 | 0.00 | 0.00 | 85 | 1026.2 |
| 20260506173333 | 58 | 240 | 0.0 | 2.6 | 0.00 | 0.00 | 0.00 | 85 | 1026.3 |
| 20260506172830 | 58 | 270 | 0.0 | 3.5 | 0.00 | 0.00 | 0.00 | 84 | 1026.2 |
| 20260506172327 | 58 | 337 | 0.0 | 2.6 | 0.00 | 0.00 | 0.00 | 85 | 1026.0 |
| 20260506171824 | 58 | 41 | 4.3 | 5.2 | 0.00 | 0.00 | 0.00 | 85 | 1026.2 |
| 20260506171321 | 57 | 270 | 0.0 | 2.6 | 0.00 | 0.00 | 0.00 | 86 | 1026.0 |
| 20260506170819 | 57 | 273 | 2.6 | 2.6 | 0.00 | 0.00 | 0.00 | 86 | 1025.8 |
| 20260506170315 | 57 | 255 | 1.7 | 3.5 | 0.00 | 0.00 | 0.00 | 86 | 1026.0 |
| 20260506165814 | 56 | 292 | 1.7 | 4.3 | 0.00 | 0.00 | 0.00 | 86 | 1026.0 |
| 20260506165311 | 57 | 270 | 0.0 | 2.6 | 0.00 | 0.00 | 0.00 | 86 | 1026.1 |
| 20260506164808 | 56 | 266 | 1.7 | 4.3 | 0.00 | 0.00 | 0.00 | 87 | 1026.0 |
| 20260506164304 | 56 | 199 | 3.5 | 4.3 | 0.00 | 0.00 | 0.00 | 86 | 1025.9 |
| 20260506163801 | 57 | 299 | 2.6 | 4.3 | 0.00 | 0.00 | 0.00 | 87 | 1025.8 |
| 20260506163256 | 56 | 282 | 0.0 | 5.2 | 0.00 | 0.00 | 0.00 | 87 | 1026.0 |
| 20260506162752 | 57 | 57 | 1.7 | 2.6 | 0.00 | 0.00 | 0.00 | 87 | 1025.9 |
| 20260506162250 | 56 | 294 | 0.0 | 5.2 | 0.00 | 0.00 | 0.00 | 88 | 1025.8 |
| 20260506161747 | 56 | 270 | 0.9 | 3.5 | 0.00 | 0.00 | 0.00 | 87 | 1025.8 |
| 20260506161244 | 56 | 188 | 1.7 | 2.6 | 0.00 | 0.00 | 0.00 | 87 | 1025.8 |
| 20260506160742 | 56 | 6 | 2.6 | 2.6 | 0.00 | 0.00 | 0.00 | 87 | 1025.7 |
| 20260506160238 | 56 | 5 | 0.0 | 2.6 | 0.00 | 0.00 | 0.00 | 87 | 1025.9 |
| 20260506155737 | 56 | 125 | 1.7 | 1.7 | 0.00 | 0.00 | 0.00 | 88 | 1025.4 |
| 20260506155233 | 56 | 292 | 0.0 | 2.6 | 0.00 | 0.00 | 0.00 | 87 | 1025.5 |
| 20260506153341 | 55 | 29 | 0.0 | 2.6 | 0.00 | 0.00 | 0.00 | 87 | 1025.2 |
| 20260506152838 | 55 | 71 | 0.9 | 4.3 | 0.00 | 0.00 | 0.00 | 88 | 1025.5 |
| 20260506152335 | 55 | 66 | 2.6 | 3.5 | 0.00 | 0.00 | 0.00 | 88 | 1025.4 |
| 20260506151833 | 55 | 23 | 0.0 | 2.6 | 0.00 | 0.00 | 0.00 | 88 | 1025.6 |
| 20260506151330 | 55 | 6 | 2.6 | 2.6 | 0.00 | 0.00 | 0.00 | 89 | 1025.6 |
| 20260506150827 | 54 | 210 | 1.7 | 4.3 | 0.00 | 0.00 | 0.00 | 89 | 1025.8 |
| 20260506150324 | 54 | 283 | 0.0 | 3.5 | 0.00 | 0.00 | 0.00 | 90 | 1025.6 |
| 20260506145820 | 54 | 285 | 0.0 | 5.2 | 0.00 | 0.00 | 0.00 | 90 | 1025.7 |
| 20260506145317 | 54 | 302 | 2.6 | 11.3 | 0.00 | 0.00 | 0.00 | 90 | 1025.7 |
| 20260506144815 | 54 | 306 | 0.9 | 3.5 | 0.00 | 0.00 | 0.00 | 90 | 1025.7 |
| 20260506144311 | 54 | 10 | 0.0 | 7.0 | 0.00 | 0.00 | 0.00 | 90 | 1025.4 |
| 20260506143810 | 54 | 331 | 3.5 | 4.3 | 0.00 | 0.00 | 0.00 | 90 | 1025.4 |
| 20260506143306 | 54 | 301 | 4.3 | 5.2 | 0.00 | 0.00 | 0.00 | 90 | 1025.3 |
| 20260506142804 | 54 | 187 | 0.9 | 2.6 | 0.00 | 0.00 | 0.00 | 91 | 1025.4 |
| 20260506142305 | 54 | 151 | 0.0 | 3.5 | 0.00 | 0.00 | 0.00 | 91 | 1025.4 |
| 20260506141800 | 54 | 261 | 0.0 | 4.3 | 0.00 | 0.00 | 0.00 | 91 | 1025.2 |
| 20260506141258 | 54 | 38 | 1.7 | 4.3 | 0.00 | 0.00 | 0.00 | 91 | 1024.9 |
| 20260506140755 | 54 | 0 | 0.9 | 2.6 | 0.00 | 0.00 | 0.00 | 91 | 1025.2 |
| 20260506140252 | 54 | 30 | 2.6 | 5.2 | 0.00 | 0.00 | 0.00 | 91 | 1025.0 |
| 20260506135749 | 54 | 42 | 2.6 | 3.5 | 0.00 | 0.00 | 0.00 | 92 | 1024.9 |
| 20260506135245 | 54 | 127 | 1.7 | 2.6 | 0.00 | 0.00 | 0.00 | 92 | 1024.8 |
| 20260506134742 | 54 | 287 | 1.7 | 6.1 | 0.00 | 0.00 | 0.00 | 92 | 1024.8 |
| 20260506134238 | 54 | 40 | 0.0 | 1.7 | 0.00 | 0.00 | 0.00 | 93 | 1024.9 |
| 20260506133736 | 53 | 27 | 3.5 | 4.3 | 0.00 | 0.00 | 0.00 | 93 | 1024.8 |
| 20260506133232 | 53 | 33 | 0.0 | 3.5 | 0.00 | 0.00 | 0.00 | 93 | 1024.7 |
| 20260506132729 | 53 | 63 | 1.7 | 3.5 | 0.00 | 0.00 | 0.00 | 93 | 1024.7 |
| 20260506132226 | 53 | 34 | 0.0 | 4.3 | 0.00 | 0.00 | 0.00 | 93 | 1024.7 |
| 20260506131724 | 54 | 246 | 1.7 | 2.6 | 0.00 | 0.00 | 0.00 | 93 | 1024.5 |
| 20260506131220 | 53 | 203 | 1.7 | 2.6 | 0.00 | 0.00 | 0.00 | 93 | 1024.5 |
| 20260506130717 | 53 | 206 | 0.0 | 2.6 | 0.00 | 0.00 | 0.00 | 93 | 1024.4 |
| 20260506130214 | 54 | 301 | 1.7 | 4.3 | 0.00 | 0.00 | 0.00 | 93 | 1024.1 |
| 20260506125712 | 54 | 325 | 0.0 | 2.6 | 0.00 | 0.00 | 0.00 | 93 | 1024.3 |
| 20260506125210 | 54 | 74 | 0.0 | 0.9 | 0.00 | 0.00 | 0.00 | 92 | 1024.2 |
| 20260506124708 | 54 | 23 | 0.0 | 2.6 | 0.00 | 0.00 | 0.00 | 92 | 1024.2 |
| 20260506124206 | 54 | 299 | 1.7 | 2.6 | 0.00 | 0.00 | 0.00 | 92 | 1024.0 |
| 20260506123702 | 54 | 279 | 0.0 | 1.7 | 0.00 | 0.00 | 0.00 | 92 | 1024.1 |
| 20260506123201 | 54 | 11 | 0.9 | 1.7 | 0.00 | 0.00 | 0.00 | 92 | 1024.3 |
| 20260506122658 | 55 | 23 | 0.9 | 6.1 | 0.00 | 0.00 | 0.00 | 92 | 1024.2 |
| 20260506122155 | 55 | 29 | 1.7 | 1.7 | 0.00 | 0.00 | 0.00 | 91 | 1024.3 |
| 20260506121653 | 55 | 14 | 0.0 | 2.6 | 0.00 | 0.00 | 0.00 | 91 | 1024.1 |
| 20260506121149 | 55 | 287 | 0.0 | 1.7 | 0.00 | 0.00 | 0.00 | 91 | 1024.1 |
| 20260506120647 | 55 | 81 | 0.0 | 1.7 | 0.00 | 0.00 | 0.00 | 91 | 1024.1 |
| 20260506120144 | 55 | 0 | 0.0 | 2.6 | 0.00 | 0.00 | 0.00 | 91 | 1024.1 |
| 20260506115642 | 55 | 41 | 1.7 | 2.6 | 0.00 | 0.00 | 0.00 | 91 | 1024.1 |
| 20260506115140 | 55 | 41 | 1.7 | 2.6 | 0.00 | 0.00 | 0.00 | 91 | 1023.9 |
| 20260506114637 | 55 | 19 | 3.5 | 4.3 | 0.00 | 0.00 | 0.00 | 91 | 1024.1 |
| 20260506114135 | 55 | 57 | 1.7 | 2.6 | 0.00 | 0.00 | 0.00 | 91 | 1023.8 |
| 20260506113634 | 55 | 345 | 0.0 | 3.5 | 0.00 | 0.00 | 0.00 | 91 | 1023.9 |
| 20260506113130 | 55 | 20 | 0.0 | 2.6 | 0.00 | 0.00 | 0.00 | 91 | 1023.9 |
| 20260506112626 | 55 | 61 | 1.7 | 1.7 | 0.00 | 0.00 | 0.00 | 91 | 1023.9 |
| 20260506112124 | 55 | 0 | 0.0 | 1.7 | 0.00 | 0.00 | 0.00 | 91 | 1023.7 |
| 20260506111622 | 55 | 23 | 0.0 | 1.7 | 0.00 | 0.00 | 0.00 | 91 | 1023.9 |
| 20260506111119 | 55 | 337 | 0.0 | 2.6 | 0.00 | 0.00 | 0.00 | 91 | 1023.7 |
| 20260506110616 | 55 | 59 | 1.7 | 1.7 | 0.00 | 0.00 | 0.00 | 91 | 1023.6 |
| 20260506110114 | 55 | 157 | 0.0 | 0.9 | 0.00 | 0.00 | 0.00 | 91 | 1023.4 |
| 20260506105610 | 55 | 352 | 0.0 | 1.7 | 0.00 | 0.00 | 0.00 | 91 | 1023.5 |
| 20260506105107 | 55 | 8 | 0.0 | 2.6 | 0.00 | 0.00 | 0.00 | 91 | 1023.5 |
| 20260506104606 | 55 | 54 | 0.0 | 0.9 | 0.00 | 0.00 | 0.00 | 91 | 1023.5 |
| 20260506104102 | 55 | 101 | 1.7 | 2.6 | 0.00 | 0.00 | 0.00 | 91 | 1023.3 |
| 20260506103600 | 55 | 276 | 0.9 | 1.7 | 0.00 | 0.00 | 0.00 | 91 | 1023.5 |
| 20260506103056 | 55 | 32 | 2.6 | 2.6 | 0.00 | 0.00 | 0.00 | 91 | 1023.5 |
| 20260506102555 | 55 | 270 | 0.0 | 3.5 | 0.00 | 0.00 | 0.00 | 90 | 1023.3 |
| 20260506102052 | 55 | 172 | 0.0 | 1.7 | 0.00 | 0.00 | 0.00 | 91 | 1023.2 |
| 20260506101548 | 55 | 331 | 1.7 | 2.6 | 0.00 | 0.00 | 0.00 | 90 | 1023.2 |
| 20260506101045 | 55 | 356 | 1.7 | 2.6 | 0.00 | 0.00 | 0.00 | 90 | 1023.2 |
| 20260506100544 | 55 | 0 | 0.0 | 2.6 | 0.00 | 0.00 | 0.00 | 90 | 1023.2 |
| 20260506100041 | 55 | 311 | 0.0 | 2.6 | 0.00 | 0.00 | 0.00 | 90 | 1023.0 |
| 20260506095540 | 55 | 48 | 0.0 | 1.7 | 0.00 | 0.00 | 0.00 | 90 | 1023.2 |
| 20260506095036 | 55 | 0 | 1.7 | 2.6 | 0.00 | 0.00 | 0.00 | 90 | 1023.0 |
| 20260506094534 | 55 | 7 | 0.0 | 2.6 | 0.00 | 0.00 | 0.00 | 90 | 1023.2 |
| 20260506094032 | 55 | 66 | 0.0 | 1.7 | 0.00 | 0.00 | 0.00 | 90 | 1023.0 |
| 20260506093530 | 56 | 187 | 0.0 | 2.6 | 0.00 | 0.00 | 0.00 | 90 | 1022.8 |
| 20260506093027 | 55 | 36 | 1.7 | 1.7 | 0.00 | 0.00 | 0.00 | 90 | 1022.9 |
| 20260506092525 | 55 | 279 | 0.0 | 1.7 | 0.00 | 0.00 | 0.00 | 90 | 1022.8 |
| 20260506092021 | 55 | 10 | 1.7 | 2.6 | 0.00 | 0.00 | 0.00 | 90 | 1022.9 |
| 20260506091520 | 55 | 342 | 1.7 | 2.6 | 0.00 | 0.00 | 0.00 | 90 | 1023.2 |
| 20260506091016 | 55 | 21 | 1.7 | 3.5 | 0.00 | 0.00 | 0.00 | 90 | 1023.0 |
| 20260506090514 | 55 | 328 | 0.0 | 2.6 | 0.00 | 0.00 | 0.00 | 90 | 1022.9 |
| 20260506090010 | 55 | 8 | 0.0 | 1.7 | 0.00 | 0.00 | 0.00 | 90 | 1022.7 |
| 20260506085507 | 55 | 60 | 0.9 | 2.6 | 0.00 | 0.00 | 0.00 | 90 | 1022.7 |
| 20260506085004 | 55 | 74 | 0.0 | 2.6 | 0.00 | 0.00 | 0.00 | 90 | 1022.7 |
| 20260506084501 | 55 | 5 | 0.0 | 2.6 | 0.00 | 0.00 | 0.00 | 90 | 1022.6 |
| 20260506083956 | 55 | 237 | 0.0 | 2.6 | 0.00 | 0.00 | 0.00 | 90 | 1022.5 |
| 20260506083454 | 56 | 270 | 0.9 | 0.9 | 0.00 | 0.00 | 0.00 | 90 | 1022.6 |
| 20260506082951 | 55 | 33 | 0.0 | 2.6 | 0.00 | 0.00 | 0.00 | 90 | 1022.6 |
| 20260506082448 | 55 | 315 | 2.6 | 2.6 | 0.00 | 0.00 | 0.00 | 90 | 1022.4 |
| 20260506081944 | 55 | 248 | 1.7 | 2.6 | 0.00 | 0.00 | 0.00 | 90 | 1022.1 |
| 20260506081442 | 55 | 315 | 1.7 | 1.7 | 0.00 | 0.00 | 0.00 | 90 | 1022.2 |
| 20260506080939 | 55 | 350 | 2.6 | 4.3 | 0.00 | 0.00 | 0.00 | 90 | 1022.3 |
| 20260506080436 | 55 | 342 | 0.9 | 3.5 | 0.00 | 0.00 | 0.00 | 90 | 1022.2 |
| 20260506073420 | 56 | 63 | 0.9 | 2.6 | 0.00 | 0.00 | 0.00 | 89 | 1022.0 |
| 20260506072917 | 56 | 33 | 3.5 | 4.3 | 0.00 | 0.00 | 0.00 | 89 | 1022.1 |
| 20260506072414 | 56 | 351 | 2.6 | 2.6 | 0.00 | 0.00 | 0.00 | 89 | 1022.2 |
| 20260506071912 | 56 | 49 | 2.6 | 3.5 | 0.00 | 0.00 | 0.00 | 89 | 1022.1 |
| 20260506071410 | 56 | 0 | 0.0 | 2.6 | 0.00 | 0.00 | 0.00 | 89 | 1022.3 |
| 20260506070907 | 56 | 39 | 1.7 | 4.3 | 0.00 | 0.00 | 0.00 | 89 | 1022.4 |
| 20260506070403 | 56 | 57 | 2.6 | 3.5 | 0.00 | 0.00 | 0.00 | 89 | 1022.4 |